Time,TemperatureF,DewpointF,PressureIn,WindDirection,WindDirectionDegrees,WindSpeedMPH,WindSpeedGustMPH,Humidity,HourlyPrecipIn,Conditions,Clouds,dailyrainin,SoftwareType,DateUTC
2013-06-25 00:01:00,69.0,67.8,29.73,North,-999,-999.0,-999.0,95,-99.99,,,-99.99,Homeseer,2013-06-25 04:01:00,
2013-06-25 00:02:00,69.0,67.6,29.73,North,-999,-999.0,-999.0,94,-99.99,,,-99.99,Homeseer,2013-06-25 04:02:00,
2013-06-25 00:03:00,69.0,67.6,29.73,North,-999,-999.0,-999.0,94,-99.99,,,-99.99,Homeseer,2013-06-25 04:03:00,
2013-06-25 00:07:00,69.0,67.6,29.73,North,-999,-999.0,-999.0,94,-99.99,,,-99.99,Homeseer,2013-06-25 04:07:00,
2013-06-25 00:12:00,69.2,67.8,29.73,North,-999,-999.0,-999.0,94,-99.99,,,-99.99,Homeseer,2013-06-25 04:12:00,
2013-06-25 00:15:00,69.2,67.8,29.73,North,-999,-999.0,-999.0,94,-99.99,,,-99.99,Homeseer,2013-06-25 04:15:00,
2013-06-25 00:20:00,69.2,67.8,29.73,North,-999,-999.0,-999.0,94,-99.99,,,-99.99,Homeseer,2013-06-25 04:20:00,
2013-06-25 00:25:00,69.3,68.1,29.73,North,-999,-999.0,-999.0,95,-99.99,,,-99.99,Homeseer,2013-06-25 04:25:00,
2013-06-25 00:30:00,69.3,68.1,29.73,North,-999,-999.0,-999.0,95,-99.99,,,-99.99,Homeseer,2013-06-25 04:30:00,
2013-06-25 00:35:00,69.4,68.2,29.72,North,-999,-999.0,-999.0,95,-99.99,,,-99.99,Homeseer,2013-06-25 04:35:00,
2013-06-25 00:40:00,69.5,68.1,29.73,North,-999,-999.0,-999.0,94,-99.99,,,-99.99,Homeseer,2013-06-25 04:40:00,
2013-06-25 00:45:00,69.5,68.1,29.72,North,-999,-999.0,-999.0,94,-99.99,,,-99.99,Homeseer,2013-06-25 04:45:00,
2013-06-25 00:50:00,69.4,68.0,29.72,North,-999,-999.0,-999.0,94,-99.99,,,-99.99,Homeseer,2013-06-25 04:50:00,
2013-06-25 00:55:00,69.3,67.9,29.72,North,-999,-999.0,-999.0,94,-99.99,,,-99.99,Homeseer,2013-06-25 04:55:00,
2013-06-25 01:00:00,69.3,67.9,29.73,North,-999,-999.0,-999.0,94,-99.99,,,-99.99,Homeseer,2013-06-25 05:00:00,
2013-06-25 01:05:00,69.3,67.9,29.73,North,-999,-999.0,-999.0,94,-99.99,,,-99.99,Homeseer,2013-06-25 05:05:00,
2013-06-25 01:10:00,69.2,67.8,29.75,North,-999,-999.0,-999.0,94,-99.99,,,-99.99,Homeseer,2013-06-25 05:10:00,
2013-06-25 01:15:00,69.2,67.8,29.73,North,-999,-999.0,-999.0,94,-99.99,,,-99.99,Homeseer,2013-06-25 05:15:00,
2013-06-25 01:20:00,68.9,67.5,29.73,North,-999,-999.0,-999.0,94,-99.99,,,-99.99,Homeseer,2013-06-25 05:20:00,
2013-06-25 01:25:00,68.8,67.4,29.72,North,-999,-999.0,-999.0,94,-99.99,,,-99.99,Homeseer,2013-06-25 05:25:00,
2013-06-25 01:30:00,68.7,67.3,29.72,North,-999,-999.0,-999.0,94,-99.99,,,-99.99,Homeseer,2013-06-25 05:30:00,
2013-06-25 01:35:00,68.7,67.3,29.72,North,-999,-999.0,-999.0,94,-99.99,,,-99.99,Homeseer,2013-06-25 05:35:00,
2013-06-25 01:40:00,68.5,67.1,29.71,North,-999,-999.0,-999.0,94,-99.99,,,-99.99,Homeseer,2013-06-25 05:40:00,
2013-06-25 01:45:00,68.4,67.2,29.71,North,-999,-999.0,-999.0,95,-99.99,,,-99.99,Homeseer,2013-06-25 05:45:00,
2013-06-25 01:50:00,68.4,67.0,29.72,North,-999,-999.0,-999.0,94,-99.99,,,-99.99,Homeseer,2013-06-25 05:50:00,
2013-06-25 01:55:00,68.2,66.8,29.71,North,-999,-999.0,-999.0,94,-99.99,,,-99.99,Homeseer,2013-06-25 05:55:00,
2013-06-25 02:00:00,68.0,66.6,29.71,North,-999,-999.0,-999.0,94,-99.99,,,-99.99,Homeseer,2013-06-25 06:00:00,
2013-06-25 02:05:00,67.9,66.7,29.71,North,-999,-999.0,-999.0,95,-99.99,,,-99.99,Homeseer,2013-06-25 06:05:00,
2013-06-25 02:10:00,67.8,66.6,29.71,North,-999,-999.0,-999.0,95,-99.99,,,-99.99,Homeseer,2013-06-25 06:10:00,
2013-06-25 02:15:00,67.8,66.4,29.71,North,-999,-999.0,-999.0,94,-99.99,,,-99.99,Homeseer,2013-06-25 06:15:00,
2013-06-25 02:20:00,67.9,66.7,29.71,North,-999,-999.0,-999.0,95,-99.99,,,-99.99,Homeseer,2013-06-25 06:20:00,
2013-06-25 02:25:00,67.9,66.7,29.71,North,-999,-999.0,-999.0,95,-99.99,,,-99.99,Homeseer,2013-06-25 06:25:00,
2013-06-25 02:30:00,67.8,66.6,29.70,North,-999,-999.0,-999.0,95,-99.99,,,-99.99,Homeseer,2013-06-25 06:30:00,
2013-06-25 02:35:00,67.9,66.7,29.70,North,-999,-999.0,-999.0,95,-99.99,,,-99.99,Homeseer,2013-06-25 06:35:00,
2013-06-25 02:40:00,67.9,66.7,29.70,North,-999,-999.0,-999.0,95,-99.99,,,-99.99,Homeseer,2013-06-25 06:40:00,
2013-06-25 02:45:00,68.0,66.8,29.70,North,-999,-999.0,-999.0,95,-99.99,,,-99.99,Homeseer,2013-06-25 06:45:00,
2013-06-25 02:50:00,68.0,66.6,29.69,North,-999,-999.0,-999.0,94,-99.99,,,-99.99,Homeseer,2013-06-25 06:50:00,
2013-06-25 02:55:00,68.0,66.8,29.69,North,-999,-999.0,-999.0,95,-99.99,,,-99.99,Homeseer,2013-06-25 06:55:00,
2013-06-25 03:00:00,67.8,66.6,29.69,North,-999,-999.0,-999.0,95,-99.99,,,-99.99,Homeseer,2013-06-25 07:00:00,
2013-06-25 03:05:00,68.0,66.6,29.68,North,-999,-999.0,-999.0,94,-99.99,,,-99.99,Homeseer,2013-06-25 07:05:00,
2013-06-25 03:10:00,68.0,66.6,29.68,North,-999,-999.0,-999.0,94,-99.99,,,-99.99,Homeseer,2013-06-25 07:10:00,
2013-06-25 03:15:00,68.3,66.9,29.68,North,-999,-999.0,-999.0,94,-99.99,,,-99.99,Homeseer,2013-06-25 07:15:00,
2013-06-25 03:20:00,68.3,66.7,29.68,North,-999,-999.0,-999.0,93,-99.99,,,-99.99,Homeseer,2013-06-25 07:20:00,
2013-06-25 03:25:00,68.2,66.8,29.69,North,-999,-999.0,-999.0,94,-99.99,,,-99.99,Homeseer,2013-06-25 07:25:00,
2013-06-25 03:30:00,68.2,66.8,29.68,North,-999,-999.0,-999.0,94,-99.99,,,-99.99,Homeseer,2013-06-25 07:30:00,
2013-06-25 03:35:00,68.0,66.6,29.68,North,-999,-999.0,-999.0,94,-99.99,,,-99.99,Homeseer,2013-06-25 07:35:00,
2013-06-25 03:40:00,67.8,66.6,29.68,North,-999,-999.0,-999.0,95,-99.99,,,-99.99,Homeseer,2013-06-25 07:40:00,
2013-06-25 03:45:00,67.8,66.6,29.69,North,-999,-999.0,-999.0,95,-99.99,,,-99.99,Homeseer,2013-06-25 07:45:00,
2013-06-25 03:50:00,67.8,66.6,29.69,North,-999,-999.0,-999.0,95,-99.99,,,-99.99,Homeseer,2013-06-25 07:50:00,
2013-06-25 03:55:00,67.9,66.5,29.69,North,-999,-999.0,-999.0,94,-99.99,,,-99.99,Homeseer,2013-06-25 07:55:00,
2013-06-25 04:00:00,67.8,66.4,29.69,North,-999,-999.0,-999.0,94,-99.99,,,-99.99,Homeseer,2013-06-25 08:00:00,
2013-06-25 04:05:00,67.8,66.4,29.69,North,-999,-999.0,-999.0,94,-99.99,,,-99.99,Homeseer,2013-06-25 08:05:00,
2013-06-25 04:10:00,67.8,66.6,29.69,North,-999,-999.0,-999.0,95,-99.99,,,-99.99,Homeseer,2013-06-25 08:10:00,
2013-06-25 04:15:00,67.7,66.5,29.69,North,-999,-999.0,-999.0,95,-99.99,,,-99.99,Homeseer,2013-06-25 08:15:00,
2013-06-25 04:20:00,67.6,66.2,29.69,North,-999,-999.0,-999.0,94,-99.99,,,-99.99,Homeseer,2013-06-25 08:20:00,
2013-06-25 04:25:00,67.5,66.3,29.69,North,-999,-999.0,-999.0,95,-99.99,,,-99.99,Homeseer,2013-06-25 08:25:00,
2013-06-25 04:30:00,67.6,66.4,29.70,North,-999,-999.0,-999.0,95,-99.99,,,-99.99,Homeseer,2013-06-25 08:30:00,
2013-06-25 04:35:00,67.6,66.0,29.69,North,-999,-999.0,-999.0,93,-99.99,,,-99.99,Homeseer,2013-06-25 08:35:00,
2013-06-25 04:40:00,67.7,66.5,29.69,North,-999,-999.0,-999.0,95,-99.99,,,-99.99,Homeseer,2013-06-25 08:40:00,
2013-06-25 04:45:00,67.8,66.6,29.69,North,-999,-999.0,-999.0,95,-99.99,,,-99.99,Homeseer,2013-06-25 08:45:00,
2013-06-25 04:50:00,67.7,66.5,29.69,North,-999,-999.0,-999.0,95,-99.99,,,-99.99,Homeseer,2013-06-25 08:50:00,
2013-06-25 04:55:00,67.7,66.5,29.69,North,-999,-999.0,-999.0,95,-99.99,,,-99.99,Homeseer,2013-06-25 08:55:00,
2013-06-25 05:00:00,67.6,66.2,29.69,North,-999,-999.0,-999.0,94,-99.99,,,-99.99,Homeseer,2013-06-25 09:00:00,
2013-06-25 05:05:00,67.6,66.4,29.69,North,-999,-999.0,-999.0,95,-99.99,,,-99.99,Homeseer,2013-06-25 09:05:00,
2013-06-25 05:10:00,67.4,66.2,29.69,North,-999,-999.0,-999.0,95,-99.99,,,-99.99,Homeseer,2013-06-25 09:10:00,
2013-06-25 05:15:00,67.2,66.1,29.70,North,-999,-999.0,-999.0,95,-99.99,,,-99.99,Homeseer,2013-06-25 09:15:00,
2013-06-25 05:20:00,67.1,65.7,29.70,North,-999,-999.0,-999.0,94,-99.99,,,-99.99,Homeseer,2013-06-25 09:20:00,
2013-06-25 05:25:00,67.2,66.1,29.70,North,-999,-999.0,-999.0,95,-99.99,,,-99.99,Homeseer,2013-06-25 09:25:00,
2013-06-25 05:30:00,67.1,66.0,29.70,North,-999,-999.0,-999.0,95,-99.99,,,-99.99,Homeseer,2013-06-25 09:30:00,
2013-06-25 05:35:00,67.1,66.0,29.70,North,-999,-999.0,-999.0,95,-99.99,,,-99.99,Homeseer,2013-06-25 09:35:00,
2013-06-25 05:40:00,67.1,66.0,29.70,North,-999,-999.0,-999.0,95,-99.99,,,-99.99,Homeseer,2013-06-25 09:40:00,
2013-06-25 05:45:00,67.1,65.7,29.70,North,-999,-999.0,-999.0,94,-99.99,,,-99.99,Homeseer,2013-06-25 09:45:00,
2013-06-25 05:50:00,67.2,65.8,29.70,North,-999,-999.0,-999.0,94,-99.99,,,-99.99,Homeseer,2013-06-25 09:50:00,
2013-06-25 05:55:00,67.1,65.7,29.69,North,-999,-999.0,-999.0,94,-99.99,,,-99.99,Homeseer,2013-06-25 09:55:00,
2013-06-25 06:00:00,67.1,66.0,29.70,North,-999,-999.0,-999.0,95,-99.99,,,-99.99,Homeseer,2013-06-25 10:00:00,
2013-06-25 06:05:00,67.2,66.1,29.69,North,-999,-999.0,-999.0,95,-99.99,,,-99.99,Homeseer,2013-06-25 10:05:00,
2013-06-25 06:10:00,67.4,66.2,29.69,North,-999,-999.0,-999.0,95,-99.99,,,-99.99,Homeseer,2013-06-25 10:10:00,
2013-06-25 06:15:00,67.5,66.3,29.69,North,-999,-999.0,-999.0,95,-99.99,,,-99.99,Homeseer,2013-06-25 10:15:00,
2013-06-25 06:20:00,67.6,66.2,29.69,North,-999,-999.0,-999.0,94,-99.99,,,-99.99,Homeseer,2013-06-25 10:20:00,
2013-06-25 06:25:00,67.7,66.5,29.69,North,-999,-999.0,-999.0,95,-99.99,,,-99.99,Homeseer,2013-06-25 10:25:00,
2013-06-25 06:30:00,67.9,66.5,29.68,North,-999,-999.0,-999.0,94,-99.99,,,-99.99,Homeseer,2013-06-25 10:30:00,
2013-06-25 06:35:00,68.2,66.8,29.68,North,-999,-999.0,-999.0,94,-99.99,,,-99.99,Homeseer,2013-06-25 10:35:00,
2013-06-25 06:40:00,68.4,67.0,29.68,North,-999,-999.0,-999.0,94,-99.99,,,-99.99,Homeseer,2013-06-25 10:40:00,
2013-06-25 06:45:00,68.6,67.2,29.68,North,-999,-999.0,-999.0,94,-99.99,,,-99.99,Homeseer,2013-06-25 10:45:00,
2013-06-25 06:50:00,68.8,67.4,29.67,North,-999,-999.0,-999.0,94,-99.99,,,-99.99,Homeseer,2013-06-25 10:50:00,
2013-06-25 06:55:00,68.8,67.2,29.67,North,-999,-999.0,-999.0,93,-99.99,,,-99.99,Homeseer,2013-06-25 10:55:00,
2013-06-25 07:00:00,69.0,67.4,29.67,North,-999,-999.0,-999.0,93,-99.99,,,-99.99,Homeseer,2013-06-25 11:00:00,
2013-06-25 07:05:00,69.4,67.8,29.67,North,-999,-999.0,-999.0,93,-99.99,,,-99.99,Homeseer,2013-06-25 11:05:00,
2013-06-25 07:10:00,69.6,67.7,29.67,North,-999,-999.0,-999.0,92,-99.99,,,-99.99,Homeseer,2013-06-25 11:10:00,
2013-06-25 07:16:00,70.0,67.9,29.67,North,-999,-999.0,-999.0,91,-99.99,,,-99.99,Homeseer,2013-06-25 11:16:00,
2013-06-25 07:21:00,70.2,67.8,29.67,North,-999,-999.0,-999.0,90,-99.99,,,-99.99,Homeseer,2013-06-25 11:21:00,
2013-06-25 07:26:00,70.4,68.0,29.67,North,-999,-999.0,-999.0,90,-99.99,,,-99.99,Homeseer,2013-06-25 11:26:00,
2013-06-25 07:31:00,70.7,68.0,29.67,North,-999,-999.0,-999.0,89,-99.99,,,-99.99,Homeseer,2013-06-25 11:31:00,
2013-06-25 07:36:00,71.6,67.3,29.67,North,-999,-999.0,-999.0,83,-99.99,,,-99.99,Homeseer,2013-06-25 11:36:00,
2013-06-25 07:41:00,72.5,68.0,29.67,North,-999,-999.0,-999.0,82,-99.99,,,-99.99,Homeseer,2013-06-25 11:41:00,
2013-06-25 07:46:00,73.9,69.3,29.67,North,-999,-999.0,-999.0,82,-99.99,,,-99.99,Homeseer,2013-06-25 11:46:00,
2013-06-25 07:51:00,74.7,69.5,29.67,North,-999,-999.0,-999.0,80,-99.99,,,-99.99,Homeseer,2013-06-25 11:51:00,
2013-06-25 07:56:00,75.4,69.9,29.68,North,-999,-999.0,-999.0,79,-99.99,,,-99.99,Homeseer,2013-06-25 11:56:00,
2013-06-25 08:01:00,76.2,71.0,29.67,North,-999,-999.0,-999.0,80,-99.99,,,-99.99,Homeseer,2013-06-25 12:01:00,
2013-06-25 08:06:00,76.8,71.3,29.67,North,-999,-999.0,-999.0,79,-99.99,,,-99.99,Homeseer,2013-06-25 12:06:00,
2013-06-25 08:11:00,77.4,71.8,29.67,North,-999,-999.0,-999.0,79,-99.99,,,-99.99,Homeseer,2013-06-25 12:11:00,
2013-06-25 08:16:00,77.7,72.1,29.67,North,-999,-999.0,-999.0,79,-99.99,,,-99.99,Homeseer,2013-06-25 12:16:00,
2013-06-25 08:21:00,78.3,71.8,29.67,North,-999,-999.0,-999.0,76,-99.99,,,-99.99,Homeseer,2013-06-25 12:21:00,
2013-06-25 08:26:00,78.3,71.8,29.67,North,-999,-999.0,-999.0,76,-99.99,,,-99.99,Homeseer,2013-06-25 12:26:00,
2013-06-25 08:31:00,78.6,70.9,29.67,North,-999,-999.0,-999.0,72,-99.99,,,-99.99,Homeseer,2013-06-25 12:31:00,
2013-06-25 08:36:00,78.6,69.5,29.67,North,-999,-999.0,-999.0,68,-99.99,,,-99.99,Homeseer,2013-06-25 12:36:00,
2013-06-25 08:41:00,79.1,71.6,29.67,North,-999,-999.0,-999.0,73,-99.99,,,-99.99,Homeseer,2013-06-25 12:41:00,
2013-06-25 08:48:00,79.5,71.4,29.67,North,-999,-999.0,-999.0,71,-99.99,,,-99.99,Homeseer,2013-06-25 12:48:00,
2013-06-25 08:54:00,80.1,72.9,29.67,North,-999,-999.0,-999.0,74,-99.99,,,-99.99,Homeseer,2013-06-25 12:54:00,
2013-06-25 08:59:00,80.6,71.8,29.67,North,-999,-999.0,-999.0,69,-99.99,,,-99.99,Homeseer,2013-06-25 12:59:00,
2013-06-25 09:04:00,81.1,72.6,29.66,North,-999,-999.0,-999.0,70,-99.99,,,-99.99,Homeseer,2013-06-25 13:04:00,
2013-06-25 09:09:00,81.3,72.8,29.66,North,-999,-999.0,-999.0,70,-99.99,,,-99.99,Homeseer,2013-06-25 13:09:00,
2013-06-25 09:14:00,81.9,72.3,29.65,North,-999,-999.0,-999.0,67,-99.99,,,-99.99,Homeseer,2013-06-25 13:14:00,
2013-06-25 09:19:00,82.1,72.5,29.65,North,-999,-999.0,-999.0,67,-99.99,,,-99.99,Homeseer,2013-06-25 13:19:00,
2013-06-25 09:24:00,82.7,72.7,29.64,North,-999,-999.0,-999.0,66,-99.99,,,-99.99,Homeseer,2013-06-25 13:24:00,
2013-06-25 09:29:00,82.6,70.8,29.65,North,-999,-999.0,-999.0,61,-99.99,,,-99.99,Homeseer,2013-06-25 13:29:00,
2013-06-25 09:34:00,82.7,71.3,29.65,North,-999,-999.0,-999.0,62,-99.99,,,-99.99,Homeseer,2013-06-25 13:34:00,
2013-06-25 09:39:00,83.0,73.0,29.65,North,-999,-999.0,-999.0,66,-99.99,,,-99.99,Homeseer,2013-06-25 13:39:00,
2013-06-25 09:44:00,83.3,72.2,29.65,North,-999,-999.0,-999.0,63,-99.99,,,-99.99,Homeseer,2013-06-25 13:44:00,
2013-06-25 09:49:00,83.2,72.1,29.65,North,-999,-999.0,-999.0,63,-99.99,,,-99.99,Homeseer,2013-06-25 13:49:00,
2013-06-25 09:54:00,83.3,72.6,29.65,North,-999,-999.0,-999.0,64,-99.99,,,-99.99,Homeseer,2013-06-25 13:54:00,
2013-06-25 09:59:00,83.9,72.8,29.65,North,-999,-999.0,-999.0,63,-99.99,,,-99.99,Homeseer,2013-06-25 13:59:00,
2013-06-25 10:04:00,84.0,72.5,29.65,North,-999,-999.0,-999.0,62,-99.99,,,-99.99,Homeseer,2013-06-25 14:04:00,
2013-06-25 10:09:00,84.7,73.1,29.65,North,-999,-999.0,-999.0,62,-99.99,,,-99.99,Homeseer,2013-06-25 14:09:00,
2013-06-25 10:14:00,84.5,73.7,29.65,North,-999,-999.0,-999.0,64,-99.99,,,-99.99,Homeseer,2013-06-25 14:14:00,
2013-06-25 10:19:00,84.6,71.5,29.65,North,-999,-999.0,-999.0,58,-99.99,,,-99.99,Homeseer,2013-06-25 14:19:00,
2013-06-25 10:24:00,85.1,73.5,29.65,North,-999,-999.0,-999.0,62,-99.99,,,-99.99,Homeseer,2013-06-25 14:24:00,
2013-06-25 10:29:00,85.4,73.4,29.66,North,-999,-999.0,-999.0,61,-99.99,,,-99.99,Homeseer,2013-06-25 14:29:00,
2013-06-25 10:34:00,85.5,72.3,29.66,North,-999,-999.0,-999.0,58,-99.99,,,-99.99,Homeseer,2013-06-25 14:34:00,
2013-06-25 10:39:00,85.4,73.0,29.67,North,-999,-999.0,-999.0,60,-99.99,,,-99.99,Homeseer,2013-06-25 14:39:00,
2013-06-25 10:44:00,85.4,73.8,29.67,North,-999,-999.0,-999.0,62,-99.99,,,-99.99,Homeseer,2013-06-25 14:44:00,
2013-06-25 10:49:00,85.6,73.6,29.67,North,-999,-999.0,-999.0,61,-99.99,,,-99.99,Homeseer,2013-06-25 14:49:00,
2013-06-25 10:54:00,85.9,73.1,29.67,North,-999,-999.0,-999.0,59,-99.99,,,-99.99,Homeseer,2013-06-25 14:54:00,
2013-06-25 10:59:00,86.3,75.0,29.66,North,-999,-999.0,-999.0,63,-99.99,,,-99.99,Homeseer,2013-06-25 14:59:00,
2013-06-25 11:04:00,86.3,73.8,29.67,North,-999,-999.0,-999.0,60,-99.99,,,-99.99,Homeseer,2013-06-25 15:04:00,
2013-06-25 11:09:00,86.8,74.7,29.67,North,-999,-999.0,-999.0,61,-99.99,,,-99.99,Homeseer,2013-06-25 15:09:00,
2013-06-25 11:14:00,87.3,74.0,29.66,North,-999,-999.0,-999.0,58,-99.99,,,-99.99,Homeseer,2013-06-25 15:14:00,
2013-06-25 11:19:00,86.9,74.0,29.67,North,-999,-999.0,-999.0,59,-99.99,,,-99.99,Homeseer,2013-06-25 15:19:00,
2013-06-25 11:24:00,87.4,75.3,29.66,North,-999,-999.0,-999.0,61,-99.99,,,-99.99,Homeseer,2013-06-25 15:24:00,
2013-06-25 11:29:00,87.4,73.2,29.66,North,-999,-999.0,-999.0,56,-99.99,,,-99.99,Homeseer,2013-06-25 15:29:00,
2013-06-25 11:34:00,88.0,74.2,29.65,North,-999,-999.0,-999.0,57,-99.99,,,-99.99,Homeseer,2013-06-25 15:34:00,
2013-06-25 11:39:00,88.5,74.7,29.65,North,-999,-999.0,-999.0,57,-99.99,,,-99.99,Homeseer,2013-06-25 15:39:00,
2013-06-25 11:44:00,88.8,75.4,29.65,North,-999,-999.0,-999.0,58,-99.99,,,-99.99,Homeseer,2013-06-25 15:44:00,
2013-06-25 11:49:00,88.2,75.6,29.65,North,-999,-999.0,-999.0,60,-99.99,,,-99.99,Homeseer,2013-06-25 15:49:00,
2013-06-25 11:54:00,88.3,75.3,29.65,North,-999,-999.0,-999.0,59,-99.99,,,-99.99,Homeseer,2013-06-25 15:54:00,
2013-06-25 11:59:00,88.6,75.2,29.65,North,-999,-999.0,-999.0,58,-99.99,,,-99.99,Homeseer,2013-06-25 15:59:00,
2013-06-25 12:04:00,88.6,75.2,29.65,North,-999,-999.0,-999.0,58,-99.99,,,-99.99,Homeseer,2013-06-25 16:04:00,
2013-06-25 12:09:00,89.0,75.1,29.65,North,-999,-999.0,-999.0,57,-99.99,,,-99.99,Homeseer,2013-06-25 16:09:00,
2013-06-25 12:14:00,89.0,75.5,29.65,North,-999,-999.0,-999.0,58,-99.99,,,-99.99,Homeseer,2013-06-25 16:14:00,
2013-06-25 12:17:00,89.4,74.7,29.64,North,-999,-999.0,-999.0,55,-99.99,,,-99.99,Homeseer,2013-06-25 16:17:00,
2013-06-25 12:22:00,89.8,75.0,29.65,North,-999,-999.0,-999.0,55,-99.99,,,-99.99,Homeseer,2013-06-25 16:22:00,
2013-06-25 12:28:00,89.8,74.6,29.65,North,-999,-999.0,-999.0,54,-99.99,,,-99.99,Homeseer,2013-06-25 16:28:00,
2013-06-25 12:33:00,89.5,74.7,29.64,North,-999,-999.0,-999.0,55,-99.99,,,-99.99,Homeseer,2013-06-25 16:33:00,
2013-06-25 12:38:00,89.4,75.9,29.63,North,-999,-999.0,-999.0,58,-99.99,,,-99.99,Homeseer,2013-06-25 16:38:00,
2013-06-25 12:43:00,89.5,75.6,29.63,North,-999,-999.0,-999.0,57,-99.99,,,-99.99,Homeseer,2013-06-25 16:43:00,
2013-06-25 12:48:00,89.6,75.3,29.63,North,-999,-999.0,-999.0,56,-99.99,,,-99.99,Homeseer,2013-06-25 16:48:00,
2013-06-25 12:53:00,90.0,74.8,29.63,North,-999,-999.0,-999.0,54,-99.99,,,-99.99,Homeseer,2013-06-25 16:53:00,
2013-06-25 12:58:00,90.0,75.6,29.62,North,-999,-999.0,-999.0,56,-99.99,,,-99.99,Homeseer,2013-06-25 16:58:00,
2013-06-25 13:03:00,90.3,75.5,29.62,North,-999,-999.0,-999.0,55,-99.99,,,-99.99,Homeseer,2013-06-25 17:03:00,
2013-06-25 13:08:00,90.1,77.0,29.61,North,-999,-999.0,-999.0,59,-99.99,,,-99.99,Homeseer,2013-06-25 17:08:00,
2013-06-25 13:13:00,90.0,76.9,29.61,North,-999,-999.0,-999.0,59,-99.99,,,-99.99,Homeseer,2013-06-25 17:13:00,
2013-06-25 13:18:00,90.6,76.2,29.61,North,-999,-999.0,-999.0,56,-99.99,,,-99.99,Homeseer,2013-06-25 17:18:00,
2013-06-25 13:23:00,90.9,75.6,29.60,North,-999,-999.0,-999.0,54,-99.99,,,-99.99,Homeseer,2013-06-25 17:23:00,
2013-06-25 13:28:00,90.8,74.6,29.60,North,-999,-999.0,-999.0,52,-99.99,,,-99.99,Homeseer,2013-06-25 17:28:00,
2013-06-25 13:33:00,90.6,75.3,29.59,North,-999,-999.0,-999.0,54,-99.99,,,-99.99,Homeseer,2013-06-25 17:33:00,
2013-06-25 13:38:00,90.3,75.0,29.59,North,-999,-999.0,-999.0,54,-99.99,,,-99.99,Homeseer,2013-06-25 17:38:00,
2013-06-25 13:43:00,90.5,73.4,29.59,North,-999,-999.0,-999.0,50,-99.99,,,-99.99,Homeseer,2013-06-25 17:43:00,
2013-06-25 13:48:00,90.6,74.0,29.59,North,-999,-999.0,-999.0,51,-99.99,,,-99.99,Homeseer,2013-06-25 17:48:00,
2013-06-25 13:53:00,90.6,75.3,29.59,North,-999,-999.0,-999.0,54,-99.99,,,-99.99,Homeseer,2013-06-25 17:53:00,
2013-06-25 13:58:00,91.0,75.2,29.58,North,-999,-999.0,-999.0,53,-99.99,,,-99.99,Homeseer,2013-06-25 17:58:00,
2013-06-25 14:03:00,91.0,74.3,29.57,North,-999,-999.0,-999.0,51,-99.99,,,-99.99,Homeseer,2013-06-25 18:03:00,
2013-06-25 14:08:00,90.9,74.2,29.57,North,-999,-999.0,-999.0,51,-99.99,,,-99.99,Homeseer,2013-06-25 18:08:00,
2013-06-25 14:14:00,90.8,73.7,29.57,North,-999,-999.0,-999.0,50,-99.99,,,-99.99,Homeseer,2013-06-25 18:14:00,
2013-06-25 14:19:00,90.6,73.5,29.56,North,-999,-999.0,-999.0,50,-99.99,,,-99.99,Homeseer,2013-06-25 18:19:00,
2013-06-25 14:24:00,90.3,74.6,29.57,North,-999,-999.0,-999.0,53,-99.99,,,-99.99,Homeseer,2013-06-25 18:24:00,
2013-06-25 14:29:00,89.9,71.9,29.56,North,-999,-999.0,-999.0,48,-99.99,,,-99.99,Homeseer,2013-06-25 18:29:00,
2013-06-25 14:34:00,90.0,75.2,29.55,North,-999,-999.0,-999.0,55,-99.99,,,-99.99,Homeseer,2013-06-25 18:34:00,
2013-06-25 14:39:00,90.1,74.0,29.55,North,-999,-999.0,-999.0,52,-99.99,,,-99.99,Homeseer,2013-06-25 18:39:00,
2013-06-25 14:44:00,90.2,73.1,29.55,North,-999,-999.0,-999.0,50,-99.99,,,-99.99,Homeseer,2013-06-25 18:44:00,
2013-06-25 14:49:00,90.4,75.1,29.55,North,-999,-999.0,-999.0,54,-99.99,,,-99.99,Homeseer,2013-06-25 18:49:00,
2013-06-25 14:54:00,90.6,75.3,29.54,North,-999,-999.0,-999.0,54,-99.99,,,-99.99,Homeseer,2013-06-25 18:54:00,
2013-06-25 14:59:00,90.5,74.3,29.54,North,-999,-999.0,-999.0,52,-99.99,,,-99.99,Homeseer,2013-06-25 18:59:00,
2013-06-25 15:04:00,90.2,74.1,29.54,North,-999,-999.0,-999.0,52,-99.99,,,-99.99,Homeseer,2013-06-25 19:04:00,
2013-06-25 15:09:00,90.0,73.0,29.53,North,-999,-999.0,-999.0,50,-99.99,,,-99.99,Homeseer,2013-06-25 19:09:00,
2013-06-25 15:14:00,89.5,72.0,29.52,North,-999,-999.0,-999.0,49,-99.99,,,-99.99,Homeseer,2013-06-25 19:14:00,
2013-06-25 15:19:00,89.2,74.0,29.52,North,-999,-999.0,-999.0,54,-99.99,,,-99.99,Homeseer,2013-06-25 19:19:00,
2013-06-25 15:24:00,89.2,72.7,29.52,North,-999,-999.0,-999.0,51,-99.99,,,-99.99,Homeseer,2013-06-25 19:24:00,
2013-06-25 15:29:00,89.3,75.0,29.52,North,-999,-999.0,-999.0,56,-99.99,,,-99.99,Homeseer,2013-06-25 19:29:00,
2013-06-25 15:34:00,89.0,73.4,29.51,North,-999,-999.0,-999.0,53,-99.99,,,-99.99,Homeseer,2013-06-25 19:34:00,
2013-06-25 15:39:00,88.8,73.7,29.51,North,-999,-999.0,-999.0,54,-99.99,,,-99.99,Homeseer,2013-06-25 19:39:00,
2013-06-25 15:44:00,88.3,72.8,29.51,North,-999,-999.0,-999.0,53,-99.99,,,-99.99,Homeseer,2013-06-25 19:44:00,
2013-06-25 15:49:00,88.7,73.1,29.50,North,-999,-999.0,-999.0,53,-99.99,,,-99.99,Homeseer,2013-06-25 19:49:00,
2013-06-25 15:54:00,89.2,73.6,29.50,North,-999,-999.0,-999.0,53,-99.99,,,-99.99,Homeseer,2013-06-25 19:54:00,
2013-06-25 15:59:00,88.6,73.9,29.49,North,-999,-999.0,-999.0,55,-99.99,,,-99.99,Homeseer,2013-06-25 19:59:00,
2013-06-25 16:04:00,88.4,74.2,29.49,North,-999,-999.0,-999.0,56,-99.99,,,-99.99,Homeseer,2013-06-25 20:04:00,
2013-06-25 16:09:00,88.4,74.6,29.49,North,-999,-999.0,-999.0,57,-99.99,,,-99.99,Homeseer,2013-06-25 20:09:00,
2013-06-25 16:14:00,88.5,73.4,29.48,North,-999,-999.0,-999.0,54,-99.99,,,-99.99,Homeseer,2013-06-25 20:14:00,
2013-06-25 16:19:00,89.2,73.6,29.48,North,-999,-999.0,-999.0,53,-99.99,,,-99.99,Homeseer,2013-06-25 20:19:00,
2013-06-25 16:24:00,89.1,73.5,29.47,North,-999,-999.0,-999.0,53,-99.99,,,-99.99,Homeseer,2013-06-25 20:24:00,
2013-06-25 16:29:00,89.1,72.6,29.47,North,-999,-999.0,-999.0,51,-99.99,,,-99.99,Homeseer,2013-06-25 20:29:00,
2013-06-25 16:34:00,88.8,73.7,29.47,North,-999,-999.0,-999.0,54,-99.99,,,-99.99,Homeseer,2013-06-25 20:34:00,
2013-06-25 16:39:00,89.0,73.9,29.47,North,-999,-999.0,-999.0,54,-99.99,,,-99.99,Homeseer,2013-06-25 20:39:00,
2013-06-25 16:44:00,89.1,72.2,29.47,North,-999,-999.0,-999.0,50,-99.99,,,-99.99,Homeseer,2013-06-25 20:44:00,
2013-06-25 16:49:00,88.6,73.1,29.47,North,-999,-999.0,-999.0,53,-99.99,,,-99.99,Homeseer,2013-06-25 20:49:00,
2013-06-25 16:54:00,88.4,72.0,29.47,North,-999,-999.0,-999.0,51,-99.99,,,-99.99,Homeseer,2013-06-25 20:54:00,
2013-06-25 16:59:00,88.2,73.1,29.48,North,-999,-999.0,-999.0,54,-99.99,,,-99.99,Homeseer,2013-06-25 20:59:00,
2013-06-25 17:04:00,87.5,72.5,29.48,North,-999,-999.0,-999.0,54,-99.99,,,-99.99,Homeseer,2013-06-25 21:04:00,
2013-06-25 17:09:00,87.2,73.1,29.49,North,-999,-999.0,-999.0,56,-99.99,,,-99.99,Homeseer,2013-06-25 21:09:00,
2013-06-25 17:14:00,86.7,72.2,29.49,North,-999,-999.0,-999.0,55,-99.99,,,-99.99,Homeseer,2013-06-25 21:14:00,
2013-06-25 17:19:00,86.0,72.4,29.49,North,-999,-999.0,-999.0,57,-99.99,,,-99.99,Homeseer,2013-06-25 21:19:00,
2013-06-25 17:24:00,85.2,72.0,29.48,North,-999,-999.0,-999.0,58,-99.99,,,-99.99,Homeseer,2013-06-25 21:24:00,
2013-06-25 17:29:00,84.8,72.1,29.48,North,-999,-999.0,-999.0,59,-99.99,,,-99.99,Homeseer,2013-06-25 21:29:00,
2013-06-25 17:34:00,84.2,71.9,29.47,North,-999,-999.0,-999.0,60,-99.99,,,-99.99,Homeseer,2013-06-25 21:34:00,
2013-06-25 17:39:00,84.0,71.7,29.46,North,-999,-999.0,-999.0,60,-99.99,,,-99.99,Homeseer,2013-06-25 21:39:00,
2013-06-25 17:44:00,83.8,72.7,29.45,North,-999,-999.0,-999.0,63,-99.99,,,-99.99,Homeseer,2013-06-25 21:44:00,
2013-06-25 17:49:00,83.7,72.6,29.45,North,-999,-999.0,-999.0,63,-99.99,,,-99.99,Homeseer,2013-06-25 21:49:00,
2013-06-25 17:54:00,83.6,73.2,29.45,North,-999,-999.0,-999.0,65,-99.99,,,-99.99,Homeseer,2013-06-25 21:54:00,
2013-06-25 17:59:00,83.3,73.3,29.45,North,-999,-999.0,-999.0,66,-99.99,,,-99.99,Homeseer,2013-06-25 21:59:00,
2013-06-25 18:04:00,83.0,73.0,29.44,North,-999,-999.0,-999.0,66,-99.99,,,-99.99,Homeseer,2013-06-25 22:04:00,
2013-06-25 18:09:00,82.8,73.2,29.44,North,-999,-999.0,-999.0,67,-99.99,,,-99.99,Homeseer,2013-06-25 22:09:00,
2013-06-25 18:14:00,82.4,73.1,29.44,North,-999,-999.0,-999.0,68,-99.99,,,-99.99,Homeseer,2013-06-25 22:14:00,
2013-06-25 18:19:00,82.1,73.5,29.45,North,-999,-999.0,-999.0,70,-99.99,,,-99.99,Homeseer,2013-06-25 22:19:00,
2013-06-25 18:24:00,81.8,73.2,29.44,North,-999,-999.0,-999.0,70,-99.99,,,-99.99,Homeseer,2013-06-25 22:24:00,
2013-06-25 18:29:00,81.5,73.3,29.44,North,-999,-999.0,-999.0,71,-99.99,,,-99.99,Homeseer,2013-06-25 22:29:00,
2013-06-25 18:34:00,81.4,73.2,29.44,North,-999,-999.0,-999.0,71,-99.99,,,-99.99,Homeseer,2013-06-25 22:34:00,
2013-06-25 18:39:00,81.3,73.1,29.45,North,-999,-999.0,-999.0,71,-99.99,,,-99.99,Homeseer,2013-06-25 22:39:00,
2013-06-25 18:44:00,81.2,73.0,29.44,North,-999,-999.0,-999.0,71,-99.99,,,-99.99,Homeseer,2013-06-25 22:44:00,
2013-06-25 18:49:00,81.0,73.1,29.45,North,-999,-999.0,-999.0,72,-99.99,,,-99.99,Homeseer,2013-06-25 22:49:00,
2013-06-25 18:54:00,80.8,73.3,29.45,North,-999,-999.0,-999.0,73,-99.99,,,-99.99,Homeseer,2013-06-25 22:54:00,
2013-06-25 18:59:00,80.6,73.1,29.45,North,-999,-999.0,-999.0,73,-99.99,,,-99.99,Homeseer,2013-06-25 22:59:00,
2013-06-25 19:04:00,80.5,73.0,29.44,North,-999,-999.0,-999.0,73,-99.99,,,-99.99,Homeseer,2013-06-25 23:04:00,
2013-06-25 19:09:00,80.5,73.0,29.43,North,-999,-999.0,-999.0,73,-99.99,,,-99.99,Homeseer,2013-06-25 23:09:00,
2013-06-25 19:14:00,80.4,72.9,29.43,North,-999,-999.0,-999.0,73,-99.99,,,-99.99,Homeseer,2013-06-25 23:14:00,
2013-06-25 19:19:00,80.3,73.1,29.44,North,-999,-999.0,-999.0,74,-99.99,,,-99.99,Homeseer,2013-06-25 23:19:00,
2013-06-25 19:24:00,80.2,72.7,29.43,North,-999,-999.0,-999.0,73,-99.99,,,-99.99,Homeseer,2013-06-25 23:24:00,
2013-06-25 19:29:00,80.2,73.0,29.43,North,-999,-999.0,-999.0,74,-99.99,,,-99.99,Homeseer,2013-06-25 23:29:00,
2013-06-25 19:34:00,80.1,72.6,29.43,North,-999,-999.0,-999.0,73,-99.99,,,-99.99,Homeseer,2013-06-25 23:34:00,
2013-06-25 19:39:00,80.0,72.8,29.44,North,-999,-999.0,-999.0,74,-99.99,,,-99.99,Homeseer,2013-06-25 23:39:00,
2013-06-25 19:44:00,79.7,72.9,29.43,North,-999,-999.0,-999.0,75,-99.99,,,-99.99,Homeseer,2013-06-25 23:44:00,
2013-06-25 19:49:00,79.5,72.7,29.43,North,-999,-999.0,-999.0,75,-99.99,,,-99.99,Homeseer,2013-06-25 23:49:00,
2013-06-25 19:54:00,79.2,72.4,29.43,North,-999,-999.0,-999.0,75,-99.99,,,-99.99,Homeseer,2013-06-25 23:54:00,
2013-06-25 19:59:00,78.8,72.3,29.43,North,-999,-999.0,-999.0,76,-99.99,,,-99.99,Homeseer,2013-06-25 23:59:00,
2013-06-25 20:04:00,78.5,72.3,29.43,North,-999,-999.0,-999.0,77,-99.99,,,-99.99,Homeseer,2013-06-26 00:04:00,
2013-06-25 20:09:00,78.4,71.9,29.43,North,-999,-999.0,-999.0,76,-99.99,,,-99.99,Homeseer,2013-06-26 00:09:00,
2013-06-25 20:14:00,78.2,72.0,29.42,North,-999,-999.0,-999.0,77,-99.99,,,-99.99,Homeseer,2013-06-26 00:14:00,
2013-06-25 20:20:00,78.0,71.8,29.42,North,-999,-999.0,-999.0,77,-99.99,,,-99.99,Homeseer,2013-06-26 00:20:00,
2013-06-25 20:25:00,77.8,71.9,29.42,North,-999,-999.0,-999.0,78,-99.99,,,-99.99,Homeseer,2013-06-26 00:25:00,
2013-06-25 20:30:00,77.5,71.6,29.42,North,-999,-999.0,-999.0,78,-99.99,,,-99.99,Homeseer,2013-06-26 00:30:00,
2013-06-25 20:35:00,77.4,71.6,29.43,North,-999,-999.0,-999.0,78,-99.99,,,-99.99,Homeseer,2013-06-26 00:35:00,
2013-06-25 20:40:00,77.3,72.6,29.45,North,-999,-999.0,-999.0,82,-99.99,,,-99.99,Homeseer,2013-06-26 00:40:00,
2013-06-25 20:45:00,76.8,72.7,29.47,North,-999,-999.0,-999.0,84,-99.99,,,-99.99,Homeseer,2013-06-26 00:45:00,
2013-06-25 20:50:00,76.5,72.7,29.47,North,-999,-999.0,-999.0,85,-99.99,,,-99.99,Homeseer,2013-06-26 00:50:00,
2013-06-25 20:55:00,75.5,72.0,29.46,North,-999,-999.0,-999.0,86,-99.99,,,-99.99,Homeseer,2013-06-26 00:55:00,
2013-06-25 21:00:00,74.6,71.6,29.47,North,-999,-999.0,-999.0,88,-99.99,,,-99.99,Homeseer,2013-06-26 01:00:00,
2013-06-25 21:06:00,74.0,71.5,29.47,North,-999,-999.0,-999.0,90,-99.99,,,-99.99,Homeseer,2013-06-26 01:06:00,
2013-06-25 21:11:00,73.8,71.3,29.47,North,-999,-999.0,-999.0,90,-99.99,,,-99.99,Homeseer,2013-06-26 01:11:00,
2013-06-25 21:17:00,73.6,71.4,29.47,North,-999,-999.0,-999.0,91,-99.99,,,-99.99,Homeseer,2013-06-26 01:17:00,
2013-06-25 21:22:00,73.3,71.1,29.47,North,-999,-999.0,-999.0,91,-99.99,,,-99.99,Homeseer,2013-06-26 01:22:00,
2013-06-25 21:27:00,73.0,71.1,29.47,North,-999,-999.0,-999.0,92,-99.99,,,-99.99,Homeseer,2013-06-26 01:27:00,
2013-06-25 21:32:00,72.8,70.9,29.47,North,-999,-999.0,-999.0,92,-99.99,,,-99.99,Homeseer,2013-06-26 01:32:00,
2013-06-25 21:37:00,72.6,70.9,29.47,North,-999,-999.0,-999.0,93,-99.99,,,-99.99,Homeseer,2013-06-26 01:37:00,
2013-06-25 21:42:00,72.6,70.9,29.48,North,-999,-999.0,-999.0,93,-99.99,,,-99.99,Homeseer,2013-06-26 01:42:00,
2013-06-25 21:47:00,72.5,70.8,29.47,North,-999,-999.0,-999.0,93,-99.99,,,-99.99,Homeseer,2013-06-26 01:47:00,
2013-06-25 21:52:00,72.4,71.2,29.48,North,-999,-999.0,-999.0,95,-99.99,,,-99.99,Homeseer,2013-06-26 01:52:00,
2013-06-25 21:57:00,72.3,71.1,29.49,North,-999,-999.0,-999.0,95,-99.99,,,-99.99,Homeseer,2013-06-26 01:57:00,
2013-06-25 22:02:00,72.2,71.0,29.48,North,-999,-999.0,-999.0,95,-99.99,,,-99.99,Homeseer,2013-06-26 02:02:00,
2013-06-25 22:07:00,72.2,71.0,29.48,North,-999,-999.0,-999.0,95,-99.99,,,-99.99,Homeseer,2013-06-26 02:07:00,
2013-06-25 22:12:00,72.2,70.8,29.49,North,-999,-999.0,-999.0,94,-99.99,,,-99.99,Homeseer,2013-06-26 02:12:00,
2013-06-25 22:17:00,72.2,70.8,29.49,North,-999,-999.0,-999.0,94,-99.99,,,-99.99,Homeseer,2013-06-26 02:17:00,
2013-06-25 22:22:00,72.1,70.7,29.48,North,-999,-999.0,-999.0,94,-99.99,,,-99.99,Homeseer,2013-06-26 02:22:00,
2013-06-25 22:27:00,72.1,70.7,29.48,North,-999,-999.0,-999.0,94,-99.99,,,-99.99,Homeseer,2013-06-26 02:27:00,
2013-06-25 22:32:00,72.0,70.6,29.48,North,-999,-999.0,-999.0,94,-99.99,,,-99.99,Homeseer,2013-06-26 02:32:00,
2013-06-25 22:37:00,72.0,70.6,29.49,North,-999,-999.0,-999.0,94,-99.99,,,-99.99,Homeseer,2013-06-26 02:37:00,
2013-06-25 22:42:00,71.9,70.5,29.48,North,-999,-999.0,-999.0,94,-99.99,,,-99.99,Homeseer,2013-06-26 02:42:00,
2013-06-25 22:47:00,71.8,70.4,29.48,North,-999,-999.0,-999.0,94,-99.99,,,-99.99,Homeseer,2013-06-26 02:47:00,
2013-06-25 22:52:00,71.4,70.7,29.48,North,-999,-999.0,-999.0,97,-99.99,,,-99.99,Homeseer,2013-06-26 02:52:00,
2013-06-25 22:57:00,71.5,70.6,29.48,North,-999,-999.0,-999.0,96,-99.99,,,-99.99,Homeseer,2013-06-26 02:57:00,
2013-06-25 23:02:00,71.5,70.3,29.48,North,-999,-999.0,-999.0,95,-99.99,,,-99.99,Homeseer,2013-06-26 03:02:00,
2013-06-25 23:07:00,71.6,70.4,29.49,North,-999,-999.0,-999.0,95,-99.99,,,-99.99,Homeseer,2013-06-26 03:07:00,
2013-06-25 23:12:00,71.6,70.4,29.48,North,-999,-999.0,-999.0,95,-99.99,,,-99.99,Homeseer,2013-06-26 03:12:00,
2013-06-25 23:17:00,71.6,70.4,29.48,North,-999,-999.0,-999.0,95,-99.99,,,-99.99,Homeseer,2013-06-26 03:17:00,
2013-06-25 23:22:00,71.4,70.5,29.47,North,-999,-999.0,-999.0,96,-99.99,,,-99.99,Homeseer,2013-06-26 03:22:00,
2013-06-25 23:27:00,71.3,70.4,29.47,North,-999,-999.0,-999.0,96,-99.99,,,-99.99,Homeseer,2013-06-26 03:27:00,
2013-06-25 23:32:00,71.4,70.2,29.47,North,-999,-999.0,-999.0,95,-99.99,,,-99.99,Homeseer,2013-06-26 03:32:00,
2013-06-25 23:37:00,71.3,70.1,29.47,North,-999,-999.0,-999.0,95,-99.99,,,-99.99,Homeseer,2013-06-26 03:37:00,
2013-06-25 23:42:00,71.2,70.0,29.47,North,-999,-999.0,-999.0,95,-99.99,,,-99.99,Homeseer,2013-06-26 03:42:00,
2013-06-25 23:47:00,71.1,69.9,29.47,North,-999,-999.0,-999.0,95,-99.99,,,-99.99,Homeseer,2013-06-26 03:47:00,
2013-06-25 23:52:00,71.0,69.8,29.47,North,-999,-999.0,-999.0,95,-99.99,,,-99.99,Homeseer,2013-06-26 03:52:00,
2013-06-25 23:57:00,70.7,69.5,29.47,North,-999,-999.0,-999.0,95,-99.99,,,-99.99,Homeseer,2013-06-26 03:57:00,